Year,Month,Day,Hour,Minute,Value (Times are PST for temperature in C)
2019,10,01,00,00,7.10
2019,10,01,00,01,7.00
2019,10,01,00,02,7.00
2019,10,01,00,03,6.90
2019,10,01,00,04,6.90
2019,10,01,00,05,6.90
2019,10,01,00,06,6.90
2019,10,01,00,07,6.90
2019,10,01,00,08,6.90
2019,10,01,00,09,6.90
2019,10,01,00,10,6.80
2019,10,01,00,11,6.80
2019,10,01,00,12,6.80
2019,10,01,00,13,6.80
2019,10,01,00,14,6.80
2019,10,01,00,15,6.80
2019,10,01,00,16,6.80
2019,10,01,00,17,6.80
2019,10,01,00,18,6.80
2019,10,01,00,19,6.70
2019,10,01,00,20,6.70
2019,10,01,00,21,6.70
2019,10,01,00,22,6.70
2019,10,01,00,23,6.60
2019,10,01,00,24,6.60
2019,10,01,00,25,6.60
2019,10,01,00,26,6.60
2019,10,01,00,27,6.60
2019,10,01,00,28,6.60
2019,10,01,00,29,6.60
2019,10,01,00,30,6.60
2019,10,01,00,31,6.60
2019,10,01,00,32,6.60
2019,10,01,00,33,6.60
2019,10,01,00,34,6.60
2019,10,01,00,35,6.50
2019,10,01,00,36,6.50
2019,10,01,00,37,6.50
2019,10,01,00,38,6.40
2019,10,01,00,39,6.30
2019,10,01,00,40,6.30
2019,10,01,00,41,6.30
2019,10,01,00,42,6.20
2019,10,01,00,43,6.20
2019,10,01,00,44,6.20
2019,10,01,00,45,6.20
2019,10,01,00,46,6.20
2019,10,01,00,47,6.20
2019,10,01,00,48,6.10
2019,10,01,00,49,6.10
2019,10,01,00,50,6.10
2019,10,01,00,51,6.10
2019,10,01,00,52,6.10
2019,10,01,00,53,6.10
2019,10,01,00,54,6.00
2019,10,01,00,55,6.00
2019,10,01,00,56,6.00
2019,10,01,00,57,6.00
2019,10,01,00,58,5.90
2019,10,01,00,59,5.90
2019,10,01,01,00,5.90
2019,10,01,01,01,5.90
2019,10,01,01,02,5.90
2019,10,01,01,03,5.90
2019,10,01,01,04,5.80
2019,10,01,01,05,5.80
2019,10,01,01,06,5.80
2019,10,01,01,07,5.80
2019,10,01,01,08,5.80
2019,10,01,01,09,5.80
2019,10,01,01,10,5.80
2019,10,01,01,11,5.80
2019,10,01,01,12,5.70
2019,10,01,01,13,5.70
2019,10,01,01,14,5.70
2019,10,01,01,15,5.70
2019,10,01,01,16,5.70
2019,10,01,01,17,5.70
2019,10,01,01,18,5.70
2019,10,01,01,19,5.70
2019,10,01,01,20,5.60
2019,10,01,01,21,5.60
2019,10,01,01,22,5.60
2019,10,01,01,23,5.60
2019,10,01,01,24,5.60
2019,10,01,01,25,5.60
2019,10,01,01,26,5.60
2019,10,01,01,27,5.50
2019,10,01,01,28,5.60
2019,10,01,01,29,5.50
2019,10,01,01,30,5.50
2019,10,01,01,31,5.50
2019,10,01,01,32,5.50
2019,10,01,01,33,5.50
2019,10,01,01,34,5.50
2019,10,01,01,35,5.50
2019,10,01,01,36,5.40
2019,10,01,01,37,5.40
2019,10,01,01,38,5.40
2019,10,01,01,39,5.40
2019,10,01,01,40,5.40
2019,10,01,01,41,5.40
2019,10,01,01,42,5.30
2019,10,01,01,43,5.30
2019,10,01,01,44,5.30
2019,10,01,01,45,5.30
2019,10,01,01,46,5.30
2019,10,01,01,47,5.30
2019,10,01,01,48,5.30
2019,10,01,01,49,5.30
2019,10,01,01,50,5.30
2019,10,01,01,51,5.30
2019,10,01,01,52,5.30
2019,10,01,01,53,5.30
2019,10,01,01,54,5.30
2019,10,01,01,55,5.20
2019,10,01,01,56,5.20
2019,10,01,01,57,5.20
2019,10,01,01,58,5.20
2019,10,01,01,59,5.20
2019,10,01,02,00,5.20
2019,10,01,02,01,5.20
2019,10,01,02,02,5.20
2019,10,01,02,03,5.20
2019,10,01,02,04,5.20
2019,10,01,02,05,5.20
2019,10,01,02,06,5.20
2019,10,01,02,07,5.20
2019,10,01,02,08,5.20
2019,10,01,02,09,5.20
2019,10,01,02,10,5.20
2019,10,01,02,11,5.20
2019,10,01,02,12,5.20
2019,10,01,02,13,5.10
2019,10,01,02,14,5.10
2019,10,01,02,15,5.10
2019,10,01,02,16,5.10
2019,10,01,02,17,5.10
2019,10,01,02,18,5.10
2019,10,01,02,19,5.10
2019,10,01,02,20,5.10
2019,10,01,02,21,5.10
2019,10,01,02,22,5.00
2019,10,01,02,23,5.00
2019,10,01,02,24,5.00
2019,10,01,02,25,5.00
2019,10,01,02,26,5.00
2019,10,01,02,27,5.00
2019,10,01,02,28,4.90
2019,10,01,02,29,4.90
2019,10,01,02,30,4.90
2019,10,01,02,31,4.90
2019,10,01,02,32,4.90
2019,10,01,02,33,4.90
2019,10,01,02,34,4.90
2019,10,01,02,35,4.90
2019,10,01,02,36,4.90
2019,10,01,02,37,4.80
2019,10,01,02,38,4.80
2019,10,01,02,39,4.80
2019,10,01,02,40,4.80
2019,10,01,02,41,4.80
2019,10,01,02,42,4.80
2019,10,01,02,43,4.80
2019,10,01,02,44,4.80
2019,10,01,02,45,4.80
2019,10,01,02,46,4.80
2019,10,01,02,47,4.80
2019,10,01,02,48,4.80
2019,10,01,02,49,4.80
2019,10,01,02,50,4.80
2019,10,01,02,51,4.80
2019,10,01,02,52,4.80
2019,10,01,02,53,4.70
2019,10,01,02,54,4.70
2019,10,01,02,55,4.70
2019,10,01,02,56,4.70
2019,10,01,02,57,4.70
2019,10,01,02,58,4.70
2019,10,01,02,59,4.70
2019,10,01,03,00,4.70
2019,10,01,03,01,4.70
2019,10,01,03,02,4.70
2019,10,01,03,03,4.70
2019,10,01,03,04,4.70
2019,10,01,03,05,4.70
2019,10,01,03,06,4.70
2019,10,01,03,07,4.70
2019,10,01,03,08,4.70
2019,10,01,03,09,4.70
2019,10,01,03,10,4.60
2019,10,01,03,11,4.60
2019,10,01,03,12,4.60
2019,10,01,03,13,4.60
2019,10,01,03,14,4.60
2019,10,01,03,15,4.70
2019,10,01,03,16,4.70
2019,10,01,03,17,4.70
2019,10,01,03,18,4.70
2019,10,01,03,19,4.70
2019,10,01,03,20,4.70
2019,10,01,03,21,4.70
2019,10,01,03,22,4.60
2019,10,01,03,23,4.60
2019,10,01,03,24,4.60
2019,10,01,03,25,4.60
2019,10,01,03,26,4.60
2019,10,01,03,27,4.60
2019,10,01,03,28,4.60
2019,10,01,03,29,4.60
2019,10,01,03,30,4.60
2019,10,01,03,31,4.60
2019,10,01,03,32,4.70
2019,10,01,03,33,4.70
2019,10,01,03,34,4.70
2019,10,01,03,35,4.70
2019,10,01,03,36,4.70
2019,10,01,03,37,4.70
2019,10,01,03,38,4.80
2019,10,01,03,39,4.80
2019,10,01,03,40,4.80
2019,10,01,03,41,4.80
2019,10,01,03,42,4.80
2019,10,01,03,43,4.80
2019,10,01,03,44,4.70
2019,10,01,03,45,4.70
2019,10,01,03,46,4.70
2019,10,01,03,47,4.70
2019,10,01,03,48,4.70
2019,10,01,03,49,4.70
2019,10,01,03,50,4.70
2019,10,01,03,51,4.70
2019,10,01,03,52,4.70
2019,10,01,03,53,4.70
2019,10,01,03,54,4.60
2019,10,01,03,55,4.60
2019,10,01,03,56,4.60
2019,10,01,03,57,4.60
2019,10,01,03,58,4.60
2019,10,01,03,59,4.60
2019,10,01,04,00,4.60
2019,10,01,04,01,4.60
2019,10,01,04,02,4.60
2019,10,01,04,03,4.60
2019,10,01,04,04,4.60
2019,10,01,04,05,4.60
2019,10,01,04,06,4.60
2019,10,01,04,07,4.60
2019,10,01,04,08,4.60
2019,10,01,04,09,4.60
2019,10,01,04,10,4.60
2019,10,01,04,11,4.60
2019,10,01,04,12,4.60
2019,10,01,04,13,4.60
2019,10,01,04,14,4.60
2019,10,01,04,15,4.60
2019,10,01,04,16,4.60
2019,10,01,04,17,4.60
2019,10,01,04,18,4.60
2019,10,01,04,19,4.60
2019,10,01,04,20,4.60
2019,10,01,04,21,4.60
2019,10,01,04,22,4.60
2019,10,01,04,23,4.60
2019,10,01,04,24,4.60
2019,10,01,04,25,4.60
2019,10,01,04,26,4.60
2019,10,01,04,27,4.60
2019,10,01,04,28,4.60
2019,10,01,04,29,4.60
2019,10,01,04,30,4.60
2019,10,01,04,31,4.60
2019,10,01,04,32,4.60
2019,10,01,04,33,4.60
2019,10,01,04,34,4.60
2019,10,01,04,35,4.60
2019,10,01,04,36,4.60
2019,10,01,04,37,4.60
2019,10,01,04,38,4.60
2019,10,01,04,39,4.60
2019,10,01,04,40,4.60
2019,10,01,04,41,4.50
2019,10,01,04,42,4.50
2019,10,01,04,43,4.50
2019,10,01,04,44,4.50
2019,10,01,04,45,4.50
2019,10,01,04,46,4.50
2019,10,01,04,47,4.40
2019,10,01,04,48,4.40
2019,10,01,04,49,4.40
2019,10,01,04,50,4.40
2019,10,01,04,51,4.40
2019,10,01,04,52,4.40
2019,10,01,04,53,4.30
2019,10,01,04,54,4.30
2019,10,01,04,55,4.30
2019,10,01,04,56,4.30
2019,10,01,04,57,4.30
2019,10,01,04,58,4.30
2019,10,01,04,59,4.30
2019,10,01,05,00,4.30
2019,10,01,05,01,4.30
2019,10,01,05,02,4.20
2019,10,01,05,03,4.20
2019,10,01,05,04,4.20
2019,10,01,05,05,4.20
2019,10,01,05,06,4.20
2019,10,01,05,07,4.20
2019,10,01,05,08,4.20
2019,10,01,05,09,4.20
2019,10,01,05,10,4.10
2019,10,01,05,11,4.10
2019,10,01,05,12,4.10
2019,10,01,05,13,4.10
2019,10,01,05,14,4.10
2019,10,01,05,15,4.10
2019,10,01,05,16,4.10
2019,10,01,05,17,4.10
2019,10,01,05,18,4.10
2019,10,01,05,19,4.10
2019,10,01,05,20,4.00
2019,10,01,05,21,4.00
2019,10,01,05,22,4.00
2019,10,01,05,23,4.00
2019,10,01,05,24,4.00
2019,10,01,05,25,3.90
2019,10,01,05,26,3.90
2019,10,01,05,27,3.90
2019,10,01,05,28,3.90
2019,10,01,05,29,3.90
2019,10,01,05,30,3.90
2019,10,01,05,31,3.90
2019,10,01,05,32,3.90
2019,10,01,05,33,3.90
2019,10,01,05,34,4.00
2019,10,01,05,35,4.00
2019,10,01,05,36,3.90
2019,10,01,05,37,3.90
2019,10,01,05,38,3.90
2019,10,01,05,39,3.90
2019,10,01,05,40,3.90
2019,10,01,05,41,3.90
2019,10,01,05,42,3.90
2019,10,01,05,43,3.90
2019,10,01,05,44,3.90
2019,10,01,05,45,3.90
2019,10,01,05,46,3.80
2019,10,01,05,47,3.80
2019,10,01,05,48,3.80
2019,10,01,05,49,3.80
2019,10,01,05,50,3.80
2019,10,01,05,51,3.80
2019,10,01,05,52,3.80
2019,10,01,05,53,3.70
2019,10,01,05,54,3.70
2019,10,01,05,55,3.70
2019,10,01,05,56,3.70
2019,10,01,05,57,3.70
2019,10,01,05,58,3.70
2019,10,01,05,59,3.70
2019,10,01,06,00,3.70
2019,10,01,06,01,3.70
2019,10,01,06,02,3.70
2019,10,01,06,03,3.70
2019,10,01,06,04,3.70
2019,10,01,06,05,3.60
2019,10,01,06,06,3.60
2019,10,01,06,07,3.60
2019,10,01,06,08,3.60
2019,10,01,06,09,3.60
2019,10,01,06,10,3.60
2019,10,01,06,11,3.60
2019,10,01,06,12,3.60
2019,10,01,06,13,3.60
2019,10,01,06,14,3.60
2019,10,01,06,15,3.60
2019,10,01,06,16,3.50
2019,10,01,06,17,3.50
2019,10,01,06,18,3.50
2019,10,01,06,19,3.50
2019,10,01,06,20,3.50
2019,10,01,06,21,3.50
2019,10,01,06,22,3.40
2019,10,01,06,23,3.40
2019,10,01,06,24,3.40
2019,10,01,06,25,3.40
2019,10,01,06,26,3.50
2019,10,01,06,27,3.50
2019,10,01,06,28,3.50
2019,10,01,06,29,3.50
2019,10,01,06,30,3.50
2019,10,01,06,31,3.50
2019,10,01,06,32,3.50
2019,10,01,06,33,3.50
2019,10,01,06,34,3.50
2019,10,01,06,35,3.50
2019,10,01,06,36,3.50
2019,10,01,06,37,3.50
2019,10,01,06,38,3.40
2019,10,01,06,39,3.40
2019,10,01,06,40,3.40
2019,10,01,06,41,3.40
2019,10,01,06,42,3.40
2019,10,01,06,43,3.40
2019,10,01,06,44,3.40
2019,10,01,06,45,3.40
2019,10,01,06,46,3.40
2019,10,01,06,47,3.40
2019,10,01,06,48,3.40
2019,10,01,06,49,3.40
2019,10,01,06,50,3.40
2019,10,01,06,51,3.30
2019,10,01,06,52,3.30
2019,10,01,06,53,3.30
2019,10,01,06,54,3.30
2019,10,01,06,55,3.30
2019,10,01,06,56,3.30
2019,10,01,06,57,3.30
2019,10,01,06,58,3.30
2019,10,01,06,59,3.30
2019,10,01,07,00,3.30
2019,10,01,07,01,3.30
2019,10,01,07,02,3.30
2019,10,01,07,03,3.30
2019,10,01,07,04,3.30
2019,10,01,07,05,3.30
2019,10,01,07,06,3.20
2019,10,01,07,07,3.30
2019,10,01,07,08,3.20
2019,10,01,07,09,3.20
2019,10,01,07,10,3.20
2019,10,01,07,11,3.20
2019,10,01,07,12,3.20
2019,10,01,07,13,3.20
2019,10,01,07,14,3.20
2019,10,01,07,15,3.20
2019,10,01,07,16,3.20
2019,10,01,07,17,3.20
2019,10,01,07,18,3.20
2019,10,01,07,19,3.20
2019,10,01,07,20,3.20
2019,10,01,07,21,3.20
2019,10,01,07,22,3.20
2019,10,01,07,23,3.20
2019,10,01,07,24,3.20
2019,10,01,07,25,3.20
2019,10,01,07,26,3.20
2019,10,01,07,27,3.20
2019,10,01,07,28,3.20
2019,10,01,07,29,3.20
2019,10,01,07,30,3.20
2019,10,01,07,31,3.20
2019,10,01,07,32,3.20
2019,10,01,07,33,3.20
2019,10,01,07,34,3.20
2019,10,01,07,35,3.30
2019,10,01,07,36,3.20
2019,10,01,07,37,3.20
2019,10,01,07,38,3.30
2019,10,01,07,39,3.30
2019,10,01,07,40,3.30
2019,10,01,07,41,3.30
2019,10,01,07,42,3.30
2019,10,01,07,43,3.30
2019,10,01,07,44,3.30
2019,10,01,07,45,3.30
2019,10,01,07,46,3.30
2019,10,01,07,47,3.30
2019,10,01,07,48,3.30
2019,10,01,07,49,3.30
2019,10,01,07,50,3.30
2019,10,01,07,51,3.30
2019,10,01,07,52,3.30
2019,10,01,07,53,3.30
2019,10,01,07,54,3.30
2019,10,01,07,55,3.30
2019,10,01,07,56,3.30
2019,10,01,07,57,3.40
2019,10,01,07,58,3.40
2019,10,01,07,59,3.40
2019,10,01,08,00,3.40
2019,10,01,08,01,3.40
2019,10,01,08,02,3.40
2019,10,01,08,03,3.40
2019,10,01,08,04,3.40
2019,10,01,08,05,3.40
2019,10,01,08,06,3.40
2019,10,01,08,07,3.40
2019,10,01,08,08,3.40
2019,10,01,08,09,3.50
2019,10,01,08,10,3.50
2019,10,01,08,11,3.50
2019,10,01,08,12,3.50
2019,10,01,08,13,3.50
2019,10,01,08,14,3.50
2019,10,01,08,15,3.60
2019,10,01,08,16,3.60
2019,10,01,08,17,3.60
2019,10,01,08,18,3.60
2019,10,01,08,19,3.60
2019,10,01,08,20,3.60
2019,10,01,08,21,3.60
2019,10,01,08,22,3.70
2019,10,01,08,23,3.70
2019,10,01,08,24,3.70
2019,10,01,08,25,3.70
2019,10,01,08,26,3.70
2019,10,01,08,27,3.70
2019,10,01,08,28,3.80
2019,10,01,08,29,3.80
2019,10,01,08,30,3.80
2019,10,01,08,31,3.80
2019,10,01,08,32,3.80
2019,10,01,08,33,3.80
2019,10,01,08,34,3.90
2019,10,01,08,35,3.90
2019,10,01,08,36,3.90
2019,10,01,08,37,3.90
2019,10,01,08,38,3.90
2019,10,01,08,39,4.00
2019,10,01,08,40,4.00
2019,10,01,08,41,4.10
2019,10,01,08,42,4.10
2019,10,01,08,43,4.10
2019,10,01,08,44,4.20
2019,10,01,08,45,4.20
2019,10,01,08,46,4.30
2019,10,01,08,47,4.30
2019,10,01,08,48,4.40
2019,10,01,08,49,4.40
2019,10,01,08,50,4.50
2019,10,01,08,51,4.60
2019,10,01,08,52,4.60
2019,10,01,08,53,4.70
2019,10,01,08,54,4.70
2019,10,01,08,55,4.80
2019,10,01,08,56,4.80
2019,10,01,08,57,4.90
2019,10,01,08,58,4.90
2019,10,01,08,59,5.00
2019,10,01,09,00,5.00
2019,10,01,09,01,5.00
2019,10,01,09,02,5.00
2019,10,01,09,03,5.00
2019,10,01,09,04,5.00
2019,10,01,09,05,5.00
2019,10,01,09,06,5.00
2019,10,01,09,07,5.10
2019,10,01,09,08,5.10
2019,10,01,09,09,5.10
2019,10,01,09,10,5.20
2019,10,01,09,11,5.20
2019,10,01,09,12,5.30
2019,10,01,09,13,5.30
2019,10,01,09,14,5.40
2019,10,01,09,15,5.40
2019,10,01,09,16,5.40
2019,10,01,09,17,5.50
2019,10,01,09,18,5.60
2019,10,01,09,19,5.60
2019,10,01,09,20,5.70
2019,10,01,09,21,5.70
2019,10,01,09,22,5.80
2019,10,01,09,23,5.80
2019,10,01,09,24,5.80
2019,10,01,09,25,5.90
2019,10,01,09,26,5.90
2019,10,01,09,27,5.90
2019,10,01,09,28,5.90
2019,10,01,09,29,5.90
2019,10,01,09,30,6.00
2019,10,01,09,31,6.00
2019,10,01,09,32,6.10
2019,10,01,09,33,6.10
2019,10,01,09,34,6.10
2019,10,01,09,35,6.20
2019,10,01,09,36,6.20
2019,10,01,09,37,6.20
2019,10,01,09,38,6.20
2019,10,01,09,39,6.20
2019,10,01,09,40,6.20
2019,10,01,09,41,6.30
2019,10,01,09,42,6.30
2019,10,01,09,43,6.30
2019,10,01,09,44,6.30
2019,10,01,09,45,6.30
2019,10,01,09,46,6.30
2019,10,01,09,47,6.40
2019,10,01,09,48,6.40
2019,10,01,09,49,6.50
2019,10,01,09,50,6.50
2019,10,01,09,51,6.60
2019,10,01,09,52,6.60
2019,10,01,09,53,6.60
2019,10,01,09,54,6.70
2019,10,01,09,55,6.70
2019,10,01,09,56,6.80
2019,10,01,09,57,6.80
2019,10,01,09,58,6.80
2019,10,01,09,59,6.80
2019,10,01,10,00,6.90
2019,10,01,10,01,6.90
2019,10,01,10,02,6.90
2019,10,01,10,03,7.00
2019,10,01,10,04,7.00
2019,10,01,10,05,7.00
2019,10,01,10,06,7.00
2019,10,01,10,07,7.10
2019,10,01,10,08,7.10
2019,10,01,10,09,7.10
2019,10,01,10,10,7.10
2019,10,01,10,11,7.10
2019,10,01,10,12,7.20
2019,10,01,10,13,7.20
2019,10,01,10,14,7.20
2019,10,01,10,15,7.20
2019,10,01,10,16,7.20
2019,10,01,10,17,7.30
2019,10,01,10,18,7.30
2019,10,01,10,19,7.30
2019,10,01,10,20,7.30
2019,10,01,10,21,7.30
2019,10,01,10,22,7.30
2019,10,01,10,23,7.30
2019,10,01,10,24,7.40
2019,10,01,10,25,7.40
2019,10,01,10,26,7.40
2019,10,01,10,27,7.40
2019,10,01,10,28,7.50
2019,10,01,10,29,7.50
2019,10,01,10,30,7.50
2019,10,01,10,31,7.50
2019,10,01,10,32,7.60
2019,10,01,10,33,7.60
2019,10,01,10,34,7.60
2019,10,01,10,35,7.60
2019,10,01,10,36,7.70
2019,10,01,10,37,7.70
2019,10,01,10,38,7.70
2019,10,01,10,39,7.80
2019,10,01,10,40,7.80
2019,10,01,10,41,7.80
2019,10,01,10,42,7.90
2019,10,01,10,43,7.90
2019,10,01,10,44,8.00
2019,10,01,10,45,8.10
2019,10,01,10,46,8.10
2019,10,01,10,47,8.20
2019,10,01,10,48,8.20
2019,10,01,10,49,8.30
2019,10,01,10,50,8.30
2019,10,01,10,51,8.40
2019,10,01,10,52,8.40
2019,10,01,10,53,8.50
2019,10,01,10,54,8.60
2019,10,01,10,55,8.60
2019,10,01,10,56,8.70
2019,10,01,10,57,8.70
2019,10,01,10,58,8.80
2019,10,01,10,59,8.90
2019,10,01,11,00,9.00
2019,10,01,11,01,9.10
2019,10,01,11,02,9.10
2019,10,01,11,03,9.20
2019,10,01,11,04,9.30
2019,10,01,11,05,9.30
2019,10,01,11,06,9.40
2019,10,01,11,07,9.50
2019,10,01,11,08,9.50
2019,10,01,11,09,9.60
2019,10,01,11,10,9.70
2019,10,01,11,11,9.70
2019,10,01,11,12,9.80
2019,10,01,11,13,9.80
2019,10,01,11,14,9.80
2019,10,01,11,15,9.90
2019,10,01,11,16,9.90
2019,10,01,11,17,9.90
2019,10,01,11,18,10.00
2019,10,01,11,19,10.00
2019,10,01,11,20,10.10
2019,10,01,11,21,10.10
2019,10,01,11,22,10.20
2019,10,01,11,23,10.20
2019,10,01,11,24,10.20
2019,10,01,11,25,10.30
2019,10,01,11,26,10.30
2019,10,01,11,27,10.30
2019,10,01,11,28,10.30
2019,10,01,11,29,10.40
2019,10,01,11,30,10.40
2019,10,01,11,31,10.40
2019,10,01,11,32,10.40
2019,10,01,11,33,10.50
2019,10,01,11,34,10.50
2019,10,01,11,35,10.60
2019,10,01,11,36,10.60
2019,10,01,11,37,10.70
2019,10,01,11,38,10.70
2019,10,01,11,39,10.80
2019,10,01,11,40,10.80
2019,10,01,11,41,10.90
2019,10,01,11,42,10.90
2019,10,01,11,43,10.90
2019,10,01,11,44,11.00
2019,10,01,11,45,11.10
2019,10,01,11,46,11.10
2019,10,01,11,47,11.20
2019,10,01,11,48,11.20
2019,10,01,11,49,11.30
2019,10,01,11,50,11.50
2019,10,01,11,51,11.60
2019,10,01,11,52,11.70
2019,10,01,11,53,11.80
2019,10,01,11,54,11.90
2019,10,01,11,55,11.90
2019,10,01,11,56,11.90
2019,10,01,11,57,11.90
2019,10,01,11,58,12.00
2019,10,01,11,59,12.00
2019,10,01,12,00,12.00
2019,10,01,12,01,12.00
2019,10,01,12,02,12.10
2019,10,01,12,03,12.10
2019,10,01,12,04,12.10
2019,10,01,12,05,12.20
2019,10,01,12,06,12.20
2019,10,01,12,07,12.30
2019,10,01,12,08,12.30
2019,10,01,12,09,12.30
2019,10,01,12,10,12.30
2019,10,01,12,11,12.30
2019,10,01,12,12,12.20
2019,10,01,12,13,12.20
2019,10,01,12,14,12.20
2019,10,01,12,15,12.20
2019,10,01,12,16,12.20
2019,10,01,12,17,12.20
2019,10,01,12,18,12.20
2019,10,01,12,19,12.20
2019,10,01,12,20,12.10
2019,10,01,12,21,12.10
2019,10,01,12,22,12.10
2019,10,01,12,23,12.10
2019,10,01,12,24,12.10
2019,10,01,12,25,12.10
2019,10,01,12,26,12.10
2019,10,01,12,27,12.10
2019,10,01,12,28,12.10
2019,10,01,12,29,12.20
2019,10,01,12,30,12.20
2019,10,01,12,31,12.20
2019,10,01,12,32,12.20
2019,10,01,12,33,12.20
2019,10,01,12,34,12.30
2019,10,01,12,35,12.30
2019,10,01,12,36,12.30
2019,10,01,12,37,12.40
2019,10,01,12,38,12.40
2019,10,01,12,39,12.40
2019,10,01,12,40,12.40
2019,10,01,12,41,12.40
2019,10,01,12,42,12.40
2019,10,01,12,43,12.50
2019,10,01,12,44,12.50
2019,10,01,12,45,12.60
2019,10,01,12,46,12.60
2019,10,01,12,47,12.60
2019,10,01,12,48,12.60
2019,10,01,12,49,12.60
2019,10,01,12,50,12.70
2019,10,01,12,51,12.70
2019,10,01,12,52,12.70
2019,10,01,12,53,12.70
2019,10,01,12,54,12.70
2019,10,01,12,55,12.80
2019,10,01,12,56,12.80
2019,10,01,12,57,12.90
2019,10,01,12,58,12.90
2019,10,01,12,59,12.90
2019,10,01,13,00,12.90
2019,10,01,13,01,12.90
2019,10,01,13,02,12.90
2019,10,01,13,03,13.00
2019,10,01,13,04,13.00
2019,10,01,13,05,13.00
2019,10,01,13,06,13.00
2019,10,01,13,07,13.00
2019,10,01,13,08,13.10
2019,10,01,13,09,13.10
2019,10,01,13,10,13.20
2019,10,01,13,11,13.20
2019,10,01,13,12,13.20
2019,10,01,13,13,13.20
2019,10,01,13,14,13.20
2019,10,01,13,15,13.10
2019,10,01,13,16,13.10
2019,10,01,13,17,13.10
2019,10,01,13,18,13.10
2019,10,01,13,19,13.20
2019,10,01,13,20,13.20
2019,10,01,13,21,13.20
2019,10,01,13,22,13.20
2019,10,01,13,23,13.30
2019,10,01,13,24,13.30
2019,10,01,13,25,13.30
2019,10,01,13,26,13.30
2019,10,01,13,27,13.30
2019,10,01,13,28,13.30
2019,10,01,13,29,13.30
2019,10,01,13,30,13.30
2019,10,01,13,31,13.30
2019,10,01,13,32,13.30
2019,10,01,13,33,13.30
2019,10,01,13,34,13.30
2019,10,01,13,35,13.30
2019,10,01,13,36,13.40
2019,10,01,13,37,13.40
2019,10,01,13,38,13.40
2019,10,01,13,39,13.40
2019,10,01,13,40,13.40
2019,10,01,13,41,13.40
2019,10,01,13,42,13.40
2019,10,01,13,43,13.50
2019,10,01,13,44,13.60
2019,10,01,13,45,13.60
2019,10,01,13,46,13.70
2019,10,01,13,47,13.70
2019,10,01,13,48,13.70
2019,10,01,13,49,13.80
2019,10,01,13,50,13.80
2019,10,01,13,51,13.80
2019,10,01,13,52,13.80
2019,10,01,13,53,13.80
2019,10,01,13,54,13.80
2019,10,01,13,55,13.80
2019,10,01,13,56,13.80
2019,10,01,13,57,13.80
2019,10,01,13,58,13.80
2019,10,01,13,59,13.80
2019,10,01,14,00,13.80
2019,10,01,14,01,13.80
2019,10,01,14,02,13.80
2019,10,01,14,03,13.90
2019,10,01,14,04,13.80
2019,10,01,14,05,13.80
2019,10,01,14,06,13.80
2019,10,01,14,07,13.80
2019,10,01,14,08,13.80
2019,10,01,14,09,13.80
2019,10,01,14,10,13.80
2019,10,01,14,11,13.80
2019,10,01,14,12,13.80
2019,10,01,14,13,13.80
2019,10,01,14,14,13.80
2019,10,01,14,15,13.90
2019,10,01,14,16,13.90
2019,10,01,14,17,13.90
2019,10,01,14,18,13.90
2019,10,01,14,19,13.90
2019,10,01,14,20,14.00
2019,10,01,14,21,14.00
2019,10,01,14,22,14.00
2019,10,01,14,23,14.10
2019,10,01,14,24,14.10
2019,10,01,14,25,14.10
2019,10,01,14,26,14.10
2019,10,01,14,27,14.10
2019,10,01,14,28,14.00
2019,10,01,14,29,14.10
2019,10,01,14,30,14.10
2019,10,01,14,31,14.10
2019,10,01,14,32,14.10
2019,10,01,14,33,14.10
2019,10,01,14,34,14.20
2019,10,01,14,35,14.20
2019,10,01,14,36,14.20
2019,10,01,14,37,14.30
2019,10,01,14,38,14.30
2019,10,01,14,39,14.30
2019,10,01,14,40,14.30
2019,10,01,14,41,14.40
2019,10,01,14,42,14.40
2019,10,01,14,43,14.40
2019,10,01,14,44,14.40
2019,10,01,14,45,14.40
2019,10,01,14,46,14.40
2019,10,01,14,47,14.40
2019,10,01,14,48,14.40
2019,10,01,14,49,14.40
2019,10,01,14,50,14.40
2019,10,01,14,51,14.40
2019,10,01,14,52,14.40
2019,10,01,14,53,14.50
2019,10,01,14,54,14.60
2019,10,01,14,55,14.60
2019,10,01,14,56,14.70
2019,10,01,14,57,14.70
2019,10,01,14,58,14.70
2019,10,01,14,59,14.80
2019,10,01,15,00,14.80
2019,10,01,15,01,14.90
2019,10,01,15,02,14.90
2019,10,01,15,03,14.90
2019,10,01,15,04,14.90
2019,10,01,15,05,14.90
2019,10,01,15,06,14.90
2019,10,01,15,07,15.00
2019,10,01,15,08,15.00
2019,10,01,15,09,15.00
2019,10,01,15,10,15.10
2019,10,01,15,11,15.10
2019,10,01,15,12,15.10
2019,10,01,15,13,15.10
2019,10,01,15,14,15.10
2019,10,01,15,15,15.10
2019,10,01,15,16,15.10
2019,10,01,15,17,15.10
2019,10,01,15,18,15.20
2019,10,01,15,19,15.20
2019,10,01,15,20,15.20
2019,10,01,15,21,15.20
2019,10,01,15,22,15.20
2019,10,01,15,23,15.20
2019,10,01,15,24,15.20
2019,10,01,15,25,15.20
2019,10,01,15,26,15.20
2019,10,01,15,27,15.20
2019,10,01,15,28,15.20
2019,10,01,15,29,15.20
2019,10,01,15,30,15.20
2019,10,01,15,31,15.20
2019,10,01,15,32,15.20
2019,10,01,15,33,15.20
2019,10,01,15,34,15.20
2019,10,01,15,35,15.20
2019,10,01,15,36,15.20
2019,10,01,15,37,15.20
2019,10,01,15,38,15.20
2019,10,01,15,39,15.20
2019,10,01,15,40,15.20
2019,10,01,15,41,15.20
2019,10,01,15,42,15.20
2019,10,01,15,43,15.20
2019,10,01,15,44,15.20
2019,10,01,15,45,15.20
2019,10,01,15,46,15.20
2019,10,01,15,47,15.20
2019,10,01,15,48,15.20
2019,10,01,15,49,15.20
2019,10,01,15,50,15.20
2019,10,01,15,51,15.20
2019,10,01,15,52,15.20
2019,10,01,15,53,15.30
2019,10,01,15,54,15.30
2019,10,01,15,55,15.30
2019,10,01,15,56,15.30
2019,10,01,15,57,15.30
2019,10,01,15,58,15.30
2019,10,01,15,59,15.30
2019,10,01,16,00,15.30
2019,10,01,16,01,15.30
2019,10,01,16,02,15.30
2019,10,01,16,03,15.30
2019,10,01,16,04,15.30
2019,10,01,16,05,15.20
2019,10,01,16,06,15.20
2019,10,01,16,07,15.20
2019,10,01,16,08,15.20
2019,10,01,16,09,15.20
2019,10,01,16,10,15.20
2019,10,01,16,11,15.20
2019,10,01,16,12,15.20
2019,10,01,16,13,15.20
2019,10,01,16,14,15.20
2019,10,01,16,15,15.20
2019,10,01,16,16,15.20
2019,10,01,16,17,15.20
2019,10,01,16,18,15.20
2019,10,01,16,19,15.20
2019,10,01,16,20,15.20
2019,10,01,16,21,15.20
2019,10,01,16,22,15.20
2019,10,01,16,23,15.20
2019,10,01,16,24,15.20
2019,10,01,16,25,15.20
2019,10,01,16,26,15.20
2019,10,01,16,27,15.20
2019,10,01,16,28,15.10
2019,10,01,16,29,15.10
2019,10,01,16,30,15.10
2019,10,01,16,31,15.10
2019,10,01,16,32,15.10
2019,10,01,16,33,15.10
2019,10,01,16,34,15.00
2019,10,01,16,35,15.00
2019,10,01,16,36,15.00
2019,10,01,16,37,15.00
2019,10,01,16,38,15.00
2019,10,01,16,39,15.00
2019,10,01,16,40,14.90
2019,10,01,16,41,14.90
2019,10,01,16,42,14.90
2019,10,01,16,43,14.90
2019,10,01,16,44,14.90
2019,10,01,16,45,14.90
2019,10,01,16,46,14.90
2019,10,01,16,47,14.90
2019,10,01,16,48,14.90
2019,10,01,16,49,14.90
2019,10,01,16,50,14.90
2019,10,01,16,51,14.90
2019,10,01,16,52,14.90
2019,10,01,16,53,14.80
2019,10,01,16,54,14.80
2019,10,01,16,55,14.80
2019,10,01,16,56,14.80
2019,10,01,16,57,14.70
2019,10,01,16,58,14.70
2019,10,01,16,59,14.70
2019,10,01,17,00,14.70
2019,10,01,17,01,14.70
2019,10,01,17,02,14.60
2019,10,01,17,03,14.60
2019,10,01,17,04,14.60
2019,10,01,17,05,14.60
2019,10,01,17,06,14.60
2019,10,01,17,07,14.60
2019,10,01,17,08,14.60
2019,10,01,17,09,14.60
2019,10,01,17,10,14.60
2019,10,01,17,11,14.60
2019,10,01,17,12,14.50
2019,10,01,17,13,14.50
2019,10,01,17,14,14.50
2019,10,01,17,15,14.50
2019,10,01,17,16,14.40
2019,10,01,17,17,14.40
2019,10,01,17,18,14.40
2019,10,01,17,19,14.40
2019,10,01,17,20,14.40
2019,10,01,17,21,14.40
2019,10,01,17,22,14.30
2019,10,01,17,23,14.30
2019,10,01,17,24,14.30
2019,10,01,17,25,14.30
2019,10,01,17,26,14.30
2019,10,01,17,27,14.30
2019,10,01,17,28,14.20
2019,10,01,17,29,14.20
2019,10,01,17,30,14.20
2019,10,01,17,31,14.20
2019,10,01,17,32,14.20
2019,10,01,17,33,14.10
2019,10,01,17,34,14.10
2019,10,01,17,35,14.10
2019,10,01,17,36,14.00
2019,10,01,17,37,14.00
2019,10,01,17,38,14.00
2019,10,01,17,39,14.00
2019,10,01,17,40,13.90
2019,10,01,17,41,13.90
2019,10,01,17,42,13.90
2019,10,01,17,43,13.90
2019,10,01,17,44,13.90
2019,10,01,17,45,13.90
2019,10,01,17,46,13.80
2019,10,01,17,47,13.80
2019,10,01,17,48,13.80